SHIJIAN-17 (SJ-17) (41838 NORAD) Tracking and Keplerian Element Data

This shows tracking and keplerian element data for the satellite.

Feedback or suggestion? Click here.




ElementValue
Catalog41838
NameSHIJIAN-17 (SJ-17)
Epoch Orbit741
Epoch Day315.93727659
Epoch Year2018
RAAN99.6489
Inclination0.2698
Eccentricity6.11E-05
Argument of Perigee205.4272
Mean Anonmoly177.5942
Mean Motion1.00274907
Decay Rate-2.67E-06
L11 41838U 16065A 18315.93727659 -.00000267 00000-0 00000-0 0 9994
L22 41838 0.2698 99.6489 0000611 205.4272 177.5942 1.00274907 7413

Live tracking and technical data element details for SHIJIAN-17 (SJ-17) (NORAD 41838). SHIJIAN-17 (SJ-17) can be tracked NOW for your location showing map with azimuth and elevation plus other details from your city location.

Track the satellite on the map from your city or location and see movement details for azimuth, elevation, latitude, longitude, range, height, and movement on the map or in text.







IsCatalogInMostPopularTable: catalog: 41838, numindb: 133
Update: records affected: 1



GetName: 41838 SHIJIAN-17 (SJ-17)

Hit Count: updated at: Mon, 12 Nov 2018 18:26:07 GMT